CZ-6A DEB

Satellite information

Favourite Embed

Satellite Type and Status

DEBRISIN ORBIT

Key statistics

Satellite CZ-6A DEB at a glance.

Uptime

1079

Days in orbit

Revolutions

≈ 14.2

Per day

Orbit

SSO

Sun Synchronous Orbit

Inclination

98.8

Latest

Satellite identification and parameters

Extended collection of information and parameters for CZ-6A DEB.

Object identification

Identified? True

Debris? True

Object name: CZ-6A DEB

International designator: 2022-151AFA

Object number (NORAD): 56626

Object ID (CCSDS): 56626

Country: PEOPLES REPUBLIC OF CHINA (PRC)

Current information (Y/N): Y

RCS size: SMALL

Orbital parameters

Period: 101.176 minutes

Inclination: 98.8388 deg

SMA: 7192.494 km

Apoapsis: 820.72 km

Periapsis: 807.998 km

RAAN: 321.65 deg

Eccentricy: 0.00088441

Argument of periapsis: 46.2301 deg

Mean anomaly: 313.9608 deg

Mean motion: 14.23257448 rev/day

Mean motion (dot): 0.00001218 rev/day2

B* drag term: 0.00055791171 1/REarth

Two-line elements (TLE)

Creation date: Oct. 21, 2025, 6:24 p.m.

Reference frame: TEME

Reference center: EARTH

Epoch: Oct. 21, 2025, 7:50 a.m. UTC

TLE line 0: 0 CZ-6A DEB

TLE line 1: 1 56626U 22151AFA 25294.32646872 .00001218 00000-0 55791-3 0 9998

TLE line 2: 2 56626 98.8388 321.6500 0008844 46.2301 313.9608 14.23257448129976

Live tracking on map

Real-time ground track for satellite CZ-6A DEB.

In-orbit conjunctions

A list of the most updated potential collisions computed for object CZ-6A DEB.

Target Orbit TCA Probability of collision Miss distance Type
FENGYUN 1C DEB SSO 2025-06-02 07:16:21 0.0001249779 71.0 (m) DEBRIS
COSMOS 2251 DEB LEO 2024-12-11 08:10:51 0.0001469437 147.0 (m) DEBRIS
FENGYUN 1C DEB SSO 2024-09-26 23:59:43 0.0001000104 170.0 (m) DEBRIS

Associated space launch

Chinese satellite reported for atmospheric/ocean/environmental/spatial parameter research purposes, details TBD.

CZ-6A DEB was lifted into orbit during the mission ‘Long March 6A | Yunhai 3’, on board a Long March 6A space rocket.

The launch took place on Nov. 11, 2022, 10:52 p.m. from Launch Complex 9A.

For more information about the launch, click the button.

Launch to space Long March 6A | Yunhai 3
Long March 6A | Yunhai 3

Agency: N/A

Status: Launch Successful

Launch date: Nov. 11, 2022, 10:52 p.m. UTC

Rocket: Long March 6A

Launch pad: Launch Complex 9A

Location: Taiyuan Satellite Launch Center, People's Republic of China

...

Latest news about this satellite

There are no fresh news available about this satellite. Check back as we update our databases every day.


Newsletter sign-up

Weekly statistics, charts and insights to help you stay on top of the space industry.